www.pogodaiklimat.ru

Погода и климат >> Архив погоды >> Австралия >> Bourke Airport Aws


ПОГОДА в Bourke Airport Aws

  • Прогноз погоды в Bourke Airport Aws
  • Монитор погоды в Bourke Airport Aws
  • Климат города

АРХИВ ПОГОДЫ в Bourke Airport Aws

Время (UTC), дата Ветер
(напр.,м/с)
 
Видим.   Явления Облачность Т
(С)
Тd
(С)
f
(%)
Тe
(С)
Тes
(С)
Комфортность P
(гПа)
Po
(гПа)
Тmin
(С)
Tmax
(С)
R
(мм)
R24
(мм)
S
(см)
13 18.04 В 4 н/о н/о +23.1 +8.0 38 +24 +24 комфорт 1022.9 1010.2
14 18.04 В 4 н/о н/о +22.7 +7.7 38 +24 +24 комфорт 1022.9 1010.2 +30.5
15 18.04 В 4 н/о н/о +21.3 +7.5 41 +22 +22 комфорт 1022.9 1010.2
16 18.04 В 5 н/о н/о +21.3 +8.2 43 +22 +22 комфорт 1022.9 1010.2
17 18.04 В 4 н/о н/о +20.6 +9.2 48 +22 +22 комфорт 1023.0 1010.3
18 18.04 В 4 н/о н/о +20.3 +9.2 49 +22 +22 комфорт 1023.2 1010.5
19 18.04 В 4 н/о н/о +19.4 +9.0 51 +20 +20 1023.9 1011.2
20 18.04 В 5 н/о н/о +18.8 +8.7 52 +19 +19 1024.3 1011.6
21 18.04 В 4 н/о н/о +19.0 +9.2 53 +20 +20 1025.0 1012.3
22 18.04 В 5 н/о н/о +19.9 +9.2 50 +21 +21 комфорт 1025.7 1013.0
23 18.04 В 5 н/о н/о +22.4 +9.9 45 +24 +24 комфорт 1025.7 1013.0
00 19.04 В 4 н/о н/о +23.9 +9.5 40 +25 +25 комфорт 1025.6 1012.9
01 19.04 В 4 н/о н/о +26.2 +10.0 36 +27 +27 жарко 1025.3 1012.6
02 19.04 В 4 н/о н/о +27.9 +10.1 33 +28 +28 жарко 1024.5 1011.8 +18.4
03 19.04 СВ 4 н/о н/о +28.7 +9.9 31 +29 +29 жарко 1023.4 1010.7
04 19.04 В 4 н/о н/о +29.1 +7.7 26 +28 +28 жарко 1022.6 1009.9
05 19.04 В 4 н/о н/о +29.3 +7.8 26 +29 +29 жарко 1022.3 1009.6
06 19.04 В 4 н/о н/о +29.9 +7.8 25 +29 +29 жарко 1022.1 1009.4
07 19.04 В 4 н/о н/о +28.8 +6.2 24 +28 +28 жарко 1022.4 1009.7
08 19.04 В 3 н/о н/о +25.8 +5.9 28 +25 +25 комфорт 1022.6 1009.9
09 19.04 В 3 н/о н/о +24.6 +6.8 32 +25 +25 комфорт 1023.2 1010.5
10 19.04 В 5 н/о н/о +24.6 +7.3 33 +25 +25 комфорт 1023.7 1011.0
11 19.04 В 4 н/о н/о +23.8 +7.4 35 +24 +24 комфорт 1024.3 1011.6
12 19.04 В 4 н/о н/о +22.3 +8.1 40 +23 +23 комфорт 1024.7 1012.0
13 19.04 В 4 н/о н/о +21.5 +8.4 43 +23 +23 комфорт 1024.4 1011.7
14 19.04 В 3 н/о н/о +19.4 +8.1 48 +21 +21 комфорт 1024.4 1011.7 +30.5
15 19.04 В 3 н/о н/о +19.0 +8.9 52 +20 +20 1023.8 1011.1
16 19.04 В 3 н/о н/о +18.2 +8.5 53 +18 +18 1023.6 1010.9
17 19.04 В 4 н/о н/о +18.9 +8.8 52 +19 +19 1023.1 1010.4
18 19.04 В 3 н/о н/о +18.1 +8.9 55 +18 +18 1023.2 1010.5
19 19.04 В 4 н/о н/о +17.1 +8.5 57 +17 +17 1023.8 1011.1
20 19.04 В 3 н/о н/о +15.4 +7.9 61 +15 +15 1024.5 1011.8
21 19.04 В 3 н/о н/о +15.9 +8.2 60 +15 +15 1025.0 1012.3
22 19.04 СВ 5 н/о н/о +19.6 +8.6 49 +20 +20 1025.9 1013.2
23 19.04 СВ 6 н/о н/о +22.0 +9.5 45 +24 +24 комфорт 1026.3 1013.6
00 20.04 С 8 н/о н/о +24.3 +10.2 41 +25 +25 комфорт 1026.2 1013.5
01 20.04 СВ 7 н/о н/о +26.2 +10.4 37 +27 +27 жарко 1025.5 1012.8
02 20.04 С 5 н/о н/о +27.1 +9.5 33 +27 +27 жарко 1024.9 1012.2 +15.2
03 20.04 С 5 н/о н/о +28.2 +8.5 29 +28 +28 жарко 1023.6 1010.9
04 20.04 В 5 н/о н/о +27.8 +7.6 28 +27 +27 жарко 1022.7 1010.0
05 20.04 В 4 н/о н/о +27.3 +7.7 29 +27 +27 жарко 1022.6 1009.9
06 20.04 В 4 н/о н/о +27.1 +7.0 28 +27 +27 жарко 1022.5 1009.8
07 20.04 В 5 н/о н/о +26.5 +6.5 28 +26 +26 жарко 1022.5 1009.8
08 20.04 В 3 н/о н/о +25.5 +6.7 30 +25 +25 комфорт 1023.0 1010.3
09 20.04 В 3 н/о н/о +24.4 +6.6 32 +24 +24 комфорт 1023.3 1010.6
10 20.04 В 3 н/о н/о +23.5 +7.2 35 +24 +24 комфорт 1023.6 1010.9
11 20.04 В 3 н/о н/о +22.1 +7.5 39 +23 +23 комфорт 1023.7 1011.0
12 20.04 В 4 н/о н/о +22.5 +7.9 39 +24 +24 комфорт 1023.6 1010.9
13 20.04 В 3 н/о н/о +20.7 +7.7 43 +22 +22 комфорт 1023.3 1010.6
14 20.04 В 3 н/о н/о +19.0 +7.8 48 +20 +20 1022.7 1010.0 +28.8
15 20.04 СВ 3 н/о н/о +17.7 +7.7 52 +18 +18 1022.3 1009.6
16 20.04 СВ 3 н/о н/о +16.9 +7.3 53 +17 +17 1021.8 1009.1
17 20.04 В 3 н/о н/о +17.4 +7.7 53 +18 +18 1021.4 1008.8
18 20.04 В 4 н/о н/о +19.0 +7.8 48 +20 +20 1021.2 1008.6
19 20.04 В 4 н/о н/о +18.8 +7.6 48 +19 +19 1021.3 1008.7
20 20.04 СВ 5 н/о н/о +19.1 +8.1 49 +20 +20 1022.3 1009.6
21 20.04 СВ 4 н/о н/о +17.9 +8.2 53 +18 +18 1023.2 1010.5
22 20.04 СВ 6 н/о н/о +20.1 +9.4 50 +21 +21 комфорт 1023.7 1011.0
23 20.04 СВ 7 н/о н/о +21.9 +10.4 48 +24 +24 комфорт 1023.8 1011.1
00 21.04 С 6 н/о н/о +23.9 +10.2 42 +25 +25 комфорт 1024.1 1011.4
01 21.04 СВ 5 н/о н/о +25.5 +10.1 38 +26 +26 жарко 1023.5 1010.8
02 21.04 СВ 4 н/о н/о +25.9 +9.7 36 +27 +27 жарко 1022.5 1009.8 +16.8
03 21.04 СВ 4 н/о н/о +26.5 +8.0 31 +26 +26 жарко 1021.5 1008.9
04 21.04 С 5 н/о н/о +27.7 +7.5 28 +27 +27 жарко 1020.6 1008.0
05 21.04 СВ 5 н/о н/о +28.2 +8.0 28 +28 +28 жарко 1020.2 1007.6
06 21.04 В 5 н/о н/о +27.5 +7.4 28 +27 +27 жарко 1020.1 1007.5
07 21.04 СВ 4 н/о н/о +27.3 +7.2 28 +27 +27 жарко 1020.2 1007.6
08 21.04 В 4 н/о н/о +25.1 +7.7 33 +25 +25 комфорт 1020.7 1008.1
09 21.04 В 4 н/о н/о +24.4 +7.5 34 +25 +25 комфорт 1021.2 1008.6
10 21.04 В 4 н/о н/о +23.5 +8.0 37 +24 +24 комфорт 1021.8 1009.1
11 21.04 В 3 н/о н/о +22.9 +7.8 38 +24 +24 комфорт 1022.0 1009.3
12 21.04 В 4 н/о н/о +22.1 +7.5 39 +23 +23 комфорт 1022.0 1009.3
13 21.04 В 4 н/о н/о +22.0 +7.8 40 +23 +23 комфорт 1021.8 1009.1
14 21.04 В 4 н/о н/о +21.7 +7.9 41 +23 +23 комфорт 1021.5 1008.9 +28.7
15 21.04 В 4 н/о н/о +21.3 +7.9 42 +22 +22 комфорт 1021.3 1008.7
16 21.04 В 4 н/о н/о +21.5 +7.3 40 +22 +22 комфорт 1020.8 1008.2
17 21.04 В 4 н/о н/о +21.2 +7.4 41 +22 +22 комфорт 1020.4 1007.8
18 21.04 В 3 н/о н/о +20.7 +7.7 43 +22 +22 комфорт 1020.4 1007.8
19 21.04 В 4 н/о н/о +20.5 +7.5 43 +22 +22 комфорт 1020.6 1008.0
20 21.04 В 3 н/о н/о +19.2 +10.2 56 +20 +20 1021.1 1008.5
21 21.04 ЮВ 2 н/о н/о +17.9 +12.4 70 +19 +19 1021.9 1009.2
22 21.04 ЮВ 2 н/о н/о +16.3 +13.6 84 +16 +16 1023.0 1010.3
23 21.04 В 4 н/о в посл. час дождь {туман} н/о +16.8 +13.5 81 +16 +16 1023.3 1010.6
00 22.04 ЮВ 4 н/о н/о +17.2 +13.5 79 +17 +17 1023.4 1010.7
01 22.04 ЮВ 4 н/о н/о +18.1 +14.6 80 +18 +18 1023.4 1010.7
02 22.04 В 4 н/о н/о +19.0 +14.7 76 +20 +20 1022.3 1009.6 +16.3
03 22.04 В 4 н/о н/о +20.3 +15.5 74 +23 +23 комфорт 1021.4 1008.8
04 22.04 В 3 н/о н/о +20.8 +15.4 71 +24 +24 комфорт 1020.8 1008.2
05 22.04 ЮВ 4 н/о н/о +21.4 +15.7 70 +25 +25 комфорт 1020.4 1007.8
06 22.04 ЮВ 4 н/о н/о +21.3 +15.8 71 +25 +25 комфорт 1020.4 1007.8
07 22.04 В 3 н/о н/о +21.3 +16.3 73 +25 +25 комфорт 1020.5 1007.9
08 22.04 В 4 н/о н/о +20.5 +16.1 76 +24 +24 комфорт 1020.7 1008.1
09 22.04 В 5 н/о н/о +20.4 +16.0 76 +23 +23 комфорт 1020.9 1008.3
10 22.04 В 5 н/о н/о +20.4 +15.8 75 +23 +23 комфорт 1021.2 1008.6
11 22.04 В 6 н/о н/о +20.4 +15.2 72 +23 +23 комфорт 1021.5 1008.9
12 22.04 В 5 н/о н/о +20.4 +15.0 71 +23 +23 комфорт 1021.7 1009.0
13 22.04 В 5 н/о н/о +20.1 +15.1 73 +22 +22 комфорт 1021.5 1008.9
14 22.04 В 5 н/о н/о +19.7 +15.4 76 +22 +22 комфорт 1021.3 1008.7 +22.2
15 22.04 В 5 н/о н/о +19.7 +14.7 73 +22 +22 комфорт 1020.7 1008.1
16 22.04 В 4 н/о н/о +19.3 +14.6 74 +21 +21 комфорт 1020.5 1007.9
17 22.04 В 3 н/о н/о +19.0 +14.5 75 +20 +20 1020.3 1007.7
18 22.04 ЮВ 3 н/о н/о +18.7 +14.6 77 +20 +20 1020.2 1007.6
19 22.04 ЮВ 3 н/о н/о +18.5 +14.8 79 +19 +19 1020.8 1008.2
20 22.04 ЮВ 4 н/о н/о +18.4 +14.5 78 +19 +19 1020.8 1008.2
21 22.04 В 3 н/о н/о +18.6 +14.1 75 +20 +20 1021.4 1008.8
22 22.04 В 4 н/о н/о +19.0 +14.1 73 +20 +20 1021.9 1009.2
23 22.04 В 4 н/о н/о +19.6 +14.2 71 +21 +21 комфорт 1022.2 1009.5
00 23.04 В 4 н/о н/о +20.0 +14.4 70 +22 +22 комфорт 1022.4 1009.7
01 23.04 В 5 н/о н/о +20.9 +14.8 68 +24 +24 комфорт 1021.9 1009.2
02 23.04 В 4 н/о н/о +21.6 +15.0 66 +25 +25 комфорт 1021.0 1008.4 +17.3
03 23.04 В 3 н/о н/о +23.0 +15.3 62 +27 +27 душно 1020.4 1007.8
04 23.04 ЮВ 3 н/о н/о +24.0 +15.2 58 +27 +27 жарко 1019.7 1007.1
05 23.04 ЮВ 4 н/о н/о +24.2 +14.6 55 +27 +27 жарко 1019.4 1006.8
06 23.04 В 3 н/о н/о +24.4 +13.3 50 +27 +27 жарко 1019.2 1006.6
07 23.04 В 4 н/о н/о +23.7 +12.7 50 +26 +26 жарко 1019.3 1006.7
08 23.04 ЮВ 2 н/о н/о +22.5 +13.0 55 +25 +25 комфорт 1019.6 1007.0
09 23.04 Ю 2 н/о н/о +21.5 +13.7 61 +24 +24 комфорт 1020.0 1007.4
10 23.04 Ю 2 н/о н/о +20.6 +13.8 65 +24 +24 комфорт 1020.4 1007.8
11 23.04 штиль 0 н/о н/о +20.1 +14.5 70 +22 +22 комфорт 1020.7 1008.1
12 23.04 штиль 0 н/о н/о +19.8 +15.0 74 +22 +22 комфорт 1020.6 1008.0
13 23.04 ЮЗ 2 н/о н/о +19.1 +14.6 75 +21 +21 комфорт 1020.3 1007.7
14 23.04 Ю 3 н/о н/о +19.3 +14.3 73 +21 +21 комфорт 1019.9 1007.3 +24.8
15 23.04 Ю 2 н/о н/о +18.8 +14.1 74 +20 +20 1019.3 1006.7
16 23.04 ЮВ 2 н/о н/о +19.1 +14.1 73 +21 +21 комфорт 1018.9 1006.3
17 23.04 ЮВ 2 н/о н/о +18.1 +14.2 78 +19 +19 1018.4 1005.8
18 23.04 ЮВ 1 н/о н/о +18.3 +14.8 80 +20 +20 1018.2 1005.6
19 23.04 В 3 н/о н/о +18.7 +14.6 77 +20 +20 1018.3 1005.7
20 23.04 В 4 н/о н/о +19.7 +14.3 71 +22 +22 комфорт 1018.4 1005.8
21 23.04 В 3 н/о н/о +19.4 +14.4 73 +21 +21 комфорт 1019.0 1006.4
22 23.04 В 3 н/о н/о +20.1 +14.5 70 +23 +23 комфорт 1019.4 1006.8
23 23.04 СВ 5 н/о н/о +22.2 +13.5 58 +25 +25 комфорт 1019.4 1006.8
00 24.04 СВ 5 н/о н/о +25.1 +13.0 47 +27 +27 жарко 1019.1 1006.5
01 24.04 С 5 н/о н/о +27.5 +12.3 39 +29 +29 жарко 1018.5 1005.9
02 24.04 С 4 н/о н/о +28.3 +11.4 35 +29 +29 жарко 1017.4 1004.8 +18.1
03 24.04 С 5 н/о н/о +28.7 +10.4 32 +29 +29 жарко 1016.3 1003.7
04 24.04 С 3 н/о н/о +29.9 +10.5 30 +30 +30 жарко 1015.3 1002.7
05 24.04 С 3 н/о н/о +29.6 +10.2 30 +30 +30 жарко 1014.6 1002.0
06 24.04 С 3 н/о н/о +29.2 +9.3 29 +29 +29 жарко 1014.4 1001.8
07 24.04 С 3 н/о н/о +28.8 +9.5 30 +29 +29 жарко 1014.5 1001.9
08 24.04 С 3 н/о н/о +26.5 +9.8 35 +27 +27 жарко 1014.7 1002.1
09 24.04 С 2 н/о н/о +25.1 +10.9 41 +26 +26 жарко 1015.1 1002.5
10 24.04 В 3 н/о н/о +24.1 +11.4 45 +26 +26 жарко 1015.4 1002.8
11 24.04 З 2 н/о н/о +22.9 +11.3 48 +25 +25 комфорт 1015.6 1003.0
12 24.04 СВ 2 н/о н/о +21.4 +12.0 55 +24 +24 комфорт 1015.7 1003.1
13 24.04 С 4 н/о н/о +22.6 +11.0 48 +25 +25 комфорт 1015.2 1002.6
14 24.04 С 3 н/о н/о +20.1 +10.5 54 +22 +22 комфорт 1014.7 1002.1 +30.5
15 24.04 СВ 4 н/о н/о +19.4 +10.9 58 +21 +21 комфорт 1013.8 1001.2
16 24.04 СВ 3 н/о н/о +17.9 +10.5 62 +18 +18 1013.1 1000.6
17 24.04 СВ 4 н/о н/о +17.7 +10.3 62 +18 +18 1012.6 1000.1
18 24.04 СВ 4 н/о н/о +17.0 +10.6 66 +17 +17 1012.3 999.8
19 24.04 СВ 3 н/о н/о +17.1 +10.2 64 +17 +17 1011.9 999.4
20 24.04 С 3 н/о н/о +19.1 +11.2 60 +20 +20 1012.1 999.6
21 24.04 С 3 н/о н/о +19.6 +11.1 58 +21 +21 комфорт 1012.2 999.7
22 24.04 С 3 н/о н/о +21.4 +11.7 54 +23 +23 комфорт 1012.8 1000.3
23 24.04 З 4 н/о н/о +22.8 +10.6 46 +25 +25 комфорт 1014.1 1001.5
00 25.04 ЮЗ 5 н/о н/о +22.2 +12.5 54 +25 +25 комфорт 1015.0 1002.4
01 25.04 ЮЗ 5 н/о н/о +21.3 +15.4 69 +24 +24 комфорт 1014.7 1002.1
02 25.04 ЮЗ 4 н/о туман местами н/о +19.9 +17.1 84 +23 +23 комфорт 1013.4 1000.9 +16.8
03 25.04 СЗ 3 н/о н/о +19.1 +17.2 89 +21 +21 комфорт 1012.7 1000.2
04 25.04 СЗ 4 н/о н/о +20.3 +17.5 84 +24 +24 комфорт 1012.4 999.9
05 25.04 СЗ 4 н/о {туман} н/о +22.2 +17.1 73 +27 +27 душно 1011.6 999.1
06 25.04 СЗ 5 н/о н/о +23.1 +17.1 69 +28 +28 душно 1011.4 998.9
07 25.04 СЗ 4 н/о н/о +22.8 +16.8 69 +28 +28 душно 1011.2 998.7
08 25.04 СЗ 4 н/о н/о +21.5 +16.5 73 +25 +25 комфорт 1011.3 998.8
09 25.04 СЗ 2 н/о н/о +20.3 +16.5 79 +24 +24 комфорт 1011.4 998.9
10 25.04 СЗ 2 н/о н/о +18.8 +16.0 84 +20 +20 1011.8 999.3
11 25.04 СЗ 1 н/о н/о +17.9 +16.1 89 +20 +20 1012.2 999.7

 

Местоположение метеостанции Bourke Airport Aws (Новый Южный Уэльс, Австралия): широта -30.03 долгота 145.95 высота над уровнем моря 108 м.

В архиве по умолчанию представлена погода в Bourke Airport Aws за последнюю неделю. Архивные данные за месяц целиком и за предыдущие месяцы, начиная с января 2011 года, Вы можете получить, выбрав интересующий диапазон дат из раскрывающегося списка и нажав кнопку "Ввод!".

Внимание! Время в таблицах - всемирное. Для получения местного времени необходимо прибавить поправку, которая в Bourke Airport Aws равна 10 ч.

Смотрите также архив погоды в соседних городах и на ближайших метеорологических станциях:

Погода в Cobar Mo (Новый Южный Уэльс, Австралия) (162 км)
Погода в Cobar Airport Aws (Новый Южный Уэльс, Австралия) (167 км)
Погода в Walgett Airport Aws (Новый Южный Уэльс, Австралия) (209 км)
Погода в Coonamble Airport (Новый Южный Уэльс, Австралия) (256 км)
Погода в Trangie Research Stn (Новый Южный Уэльс, Австралия) (289 км)
Погода в White Cliffs Aws (Новый Южный Уэльс, Австралия) (291 км)
Погода в Wilcannia Aerodrome (Новый Южный Уэльс, Австралия) (296 км)
Погода в Thargomindah Airport (Квинсленд, Австралия) (309 км)
Погода в St George Airport (Квинсленд, Австралия) (339 км)
Погода в Dubbo Airport Aws (Новый Южный Уэльс, Австралия) (347 км)

Пояснения к столбцам:

Ветер - указаны скорость ветра в м/с - средняя за 10 мин, порывы в срок и между сроками (в фигурных скобках) и направление, откуда дует ветер: С - северный, СВ - северо-восточный, В - восточный, ЮВ - юго-восточный, Ю - южный, ЮЗ - юго-западный, З - западный, СЗ - северо-западный.
Видимость - горизонтальная дальность видимости в метрах или километрах. При видимости от 1 до 10 км при отсутствии осадков обычно наблюдается дымка, при ухудшении видимости до 1 км и менее - туман. В сухую погоду видимость может ухудшаться дымом, пылью или мглою.
Явления - указаны атмосферные явления, наблюдавшиеся в срок или в последний час перед сроком; фигурными скобками обозначены явления, наблюдавшиеся между сроками (за 1-3 часа до срока); квадратными скобками обозначены град или гололедные отложения с указанием их диаметра в мм.
Облачность - указаны через наклонную черту общая и нижняя облачность в баллах и высота нижней границы облаков в метрах; квадратными скобками обозначены формы облаков: Ci - перистые, Cs - перисто-слоистые, Cc - перисто-кучевые, Ac - высококучевые, As - высокослоистые, Sc - слоисто-кучевые, Ns - слоисто-дождевые, Cu - кучевые, Cb - кучево-дождевые. Подробнее классификацию облаков см. в Атласе облаков (PDF).
T - Температура воздуха - температура, измеренная на высоте 2 м над землей.
Td - Температура точки росы - температура, при понижении до которой содержащийся в воздухе водяной пар достигнет насыщения.
f - Относительная влажность воздуха - влажноcть воздуха, измеренная на высоте 2 м над землей.
Te - Эффективная температура - температура, которую ощущает одетый по сезону человек в тени. Характеристика душности погоды. При расчете учитывается влияние влажности воздуха и скорости ветра на теплоощущения человека.
Tes - Эффективная температура на солнце - температура, которую ощущает человек, с поправкой на солнечный нагрев. Характеристика знойности погоды. Зависит от высоты солнца над горизонтом, облачности и скорости ветра. Ночью, в пасмурную погоду, а также при ветре 12 м/с и более поправка равна нулю.
P - Атмосферное давление - приведенное к уровню моря атмосферное давление.
Po - Атмосферное давление - измеренное на уровне метеостанции атмосферное давление.
Tmin - Минимальная температура - минимум температуры воздуха на высоте 2 м над землей.
Tmax - Максимальная температура - максимум температуры воздуха на высоте 2 м над землей.
R - Количество осадков - Количество выпавших осадков за период времени, мм. При наведении курсора мыши на число - период времени, за который выпало указанное количество осадков.
R24 - Количество осадков - Количество выпавших осадков за 24 часа, мм.
S - Снежный покров - Высота снежного покрова, см. При наведении курсора мыши на число - состояние снежного покрова и степень покрытия местности в баллах.